#timestamp,LO_Frequency,Hit,StdDev 
1526598015.0,286046999.8,N
1526598015.9,286046999.8,N
1526598035.8,286047000.1,N
1526598055.6,286047002.4,N
1526598075.4,286047000.3,N
1526598095.3,286047001.0,N
1526598115.1,286046998.6,N
1526598135.8,286047000.7,N
1526598155.7,286047002.6,N
1526598175.5,286046999.9,N
1526598195.4,286047001.2,N
1526598215.2,286046999.2,N
1526598235.0,286047000.7,N
1526598235.9,286047000.7,N
1526598255.8,286047000.0,N
1526598275.6,286047000.5,N
1526598295.5,286047001.2,N
1526598315.3,286046998.9,N
1526598335.1,286046999.0,N
1526598355.9,286046996.9,N
1526598375.7,286046999.2,N
1526598395.6,286046998.9,N
1526598415.4,286046998.7,N
1526598435.2,286047000.7,N
1526598455.1,286047002.6,N
1526598456.0,286047002.6,N
1526598475.8,286047000.4,N
1526598495.6,286047002.8,N
1526598515.5,286046996.7,N
1526598535.3,286046998.9,N
1526598555.2,286046999.2,N
1526598575.9,286046998.1,N
1526598595.7,286046997.0,N
1526598615.6,286046996.9,N
1526598635.4,286046998.5,N
1526598655.2,286046997.0,N
1526598675.1,286046996.7,N
1526598676.0,286046996.7,N
1526598695.8,286046999.4,N
1526598715.7,286046997.7,N
1526598735.5,286046995.0,N
1526598755.3,286046999.4,N
1526598775.2,286047001.1,N
1526598795.0,286046999.5,N
1526598795.9,286046999.5,N
1526598815.8,286046998.0,N
1526598835.6,286046996.1,N
1526598855.4,286046996.1,N
1526598875.3,286046996.7,N
1526598895.1,286046996.9,N
1526598915.8,286046996.8,N
1526598935.7,286046998.2,N
1526598955.5,286046999.8,N
1526598975.4,286047001.2,N
1526598995.2,286046996.5,N
1526599015.0,286046998.4,N
1526599015.9,286046998.4,N
1526599035.8,286046998.5,N
1526599055.6,286046997.1,N
1526599075.4,286046997.4,N
1526599095.3,286046997.0,N
1526599115.1,286046997.7,N
1526599135.9,286046996.6,N
1526599155.7,286046994.9,Y
1526599175.5,286046999.4,P
1526599195.4,286046998.9,N
1526599215.2,286046997.0,P
1526599235.1,286046996.6,Y
1526599236.0,286046996.6,P
1526599255.8,286047002.3,N
1526599275.6,286047002.2,N
1526599295.5,286047002.1,N
1526599315.3,286046999.7,N
1526599335.2,286047001.0,N
1526599355.9,286047001.7,N
1526599375.7,286047003.1,N
1526599395.6,286047003.4,N
1526599415.4,286047001.3,N
1526599435.2,286046999.9,N
1526599455.1,286047000.1,N
1526599456.0,286047000.1,N
1526599475.8,286046998.2,N
1526599495.7,286046998.1,N
1526599515.5,286047002.8,N
1526599535.3,286047002.2,N
1526599555.2,286047000.5,N
1526599575.0,286046999.8,N
1526599575.9,286046999.8,N
1526599595.8,286046998.8,N
1526599615.6,286046999.3,N
1526599635.4,286046999.2,N
1526599655.3,286047000.8,N
1526599675.1,286047002.2,N
1526599676.0,286047002.2,N
1526599695.8,286047000.9,N
1526599715.7,286047000.3,N
1526599735.5,286046999.4,N
1526599755.3,286046998.7,N
1526599775.2,286046996.7,N
1526599795.0,286046993.8,Y
1526599795.9,286046993.8,P
1526599815.8,286046993.9,N
1526599835.6,286046992.2,N
1526599855.5,286046992.5,N
1526599875.3,286046991.0,N
1526599895.1,286046990.2,Y
1526599915.9,286046999.5,P
1526599965.7,286046998.9,E
1526599975.7,286046998.4,N
1526599995.5,286047002.5,P
1526600015.3,286047002.1,N
1526600035.2,286047002.4,N
1526600055.0,286047001.3,N
1526600055.9,286047001.3,N
1526600075.7,286047002.1,N
1526600095.6,286047006.0,Y
1526600115.4,286047002.2,P
1526600135.3,286046999.7,N
1526600155.1,286047003.6,P
1526600175.8,286047002.5,N
1526600195.7,286047000.3,N
1526600215.5,286046998.6,N
1526600235.4,286046998.3,N
1526600255.2,286046998.2,N
1526600275.0,286046998.5,N
1526600275.9,286046998.5,N
1526600295.8,286046998.4,N
1526600315.6,286046999.0,N
1526600335.4,286046999.0,N
1526600355.3,286046996.9,N
1526600375.1,286046996.8,N
1526600395.9,286046999.5,N
1526600415.7,286046998.9,N
1526600435.5,286046999.3,N
1526600455.4,286047000.7,N
1526600475.2,286047001.1,N
1526600495.1,286046998.9,N
1526600496.0,286046998.9,N
1526600515.8,286047000.5,N
1526600535.6,286047000.9,N
1526600555.5,286047000.4,N
1526600575.3,286047000.7,N
1526600595.1,286047000.8,N
1526600615.9,286047001.2,N
1526600635.7,286047000.8,N
1526600655.6,286046999.9,N
1526600675.4,286047000.6,N
1526600695.2,286047000.9,N
1526600715.1,286047002.6,N
1526600716.0,286047002.6,N
1526600735.8,286046999.8,N
1526600755.7,286046999.7,N
1526600775.5,286047004.0,N
1526600795.3,286047003.2,N
1526600815.2,286047004.1,N
1526600835.9,286047003.1,N
1526600855.7,286047002.9,N
1526600875.6,286047005.4,N
1526600895.4,286047002.9,N
1526600915.2,286047003.3,N
1526600935.1,286047003.3,N
1526600936.0,286047003.3,N
1526600955.8,286047003.6,N
1526600975.7,286047001.8,N
1526600995.5,286047003.5,N
1526601015.3,286047001.4,N
1526601035.2,286047002.0,N
1526601055.0,286047001.6,N
1526601055.9,286047001.6,N
1526601075.8,286047004.3,N
1526601095.6,286047001.8,N
1526601115.4,286047003.8,N
1526601135.3,286047004.0,N
1526601155.1,286047005.4,Y
1526601175.8,286047000.3,P
1526601195.7,286047000.4,N
1526601215.5,286047001.6,N
1526601235.4,286047000.7,N
1526601255.2,286047000.5,N
1526601275.0,286046999.9,N
1526601275.9,286046999.9,N
1526601295.8,286047002.2,N
1526601315.6,286047002.5,N
1526601335.5,286047003.9,Y
1526601355.3,286046999.7,P
1526601375.1,286047002.6,P
1526601395.9,286047002.0,N
1526601415.7,286047002.6,N
1526601435.5,286046999.7,N
1526601455.4,286047000.6,N
1526601475.2,286046999.7,N
1526601495.1,286047000.0,N
1526601496.0,286047000.0,N
1526601515.8,286047004.0,Y
1526601535.6,286047000.1,P
1526601555.5,286046999.7,N
1526601575.3,286047001.0,N
1526601595.1,286047000.4,N
